Terminal Aerodrome Forecast
Issued by NWS

Home | Current Version | Previous Version | Text Only | Print | Product List | Glossary On
Versions: 1 2 3 4 5 6 7 8 9 10 11 12 13 14 15 16 17 18 19 20 21 22 23
000
FTUS43 KPAH 041120
TAFCGI
TAF
KCGI 041120Z 0412/0512 01015G20KT 4SM -RA BR OVC008
      TEMPO 0412/0415 2SM -RA BR SCT008 OVC015
     FM041500 01015G20KT 3SM -PL BR OVC005
      TEMPO 0419/0421 1SM -SNPL BR
     FM042100 01015G22KT 1 1/2SM -SN BR OVC005
     FM050900 01012G20KT 3SM BR OVC010 PROB30 0509/0512 2SM -SN BR=

USA.gov is the U.S. government's official web portal to all federal, state and local government web resources and services.